Theta_e
300 300 301 300 300 296 290 289 288 288 288 288 287 286 287 289 289 290 290 291 291 292 293 293 294 294 294
300 300 299 292 290 288 288 288 288 288 287 287 287 288 289 289 289 289 289 290 290 290 291 291 292 292 293
292 289 288 288 288 288 288 288 288 287 286 287 288 288 289 289 289 288 288 288 288 288 289 289 290 290 291
288 287 288 289 289 289 288 288 286 286 287 288 288 288 288 288 289 289 288 288 288 287 288 288 289 289 290
287 289 290 289 289 288 287 286 286 286 287 288 287 288 288 289 288 288 288 288 288 288 288 289 289 289 289
289 287 288 288 287 286 285 284 286 287 287 288 288 288 288 288 288 288 288 287 287 287 287 287 288 288 289
287 287 287 286 285 284 285 285 286 287 286 286 288 287 288 288 288 288 288 288 287 287 287 287 287 288 288
285 284 283 283 284 285 285 285 286 287 286 286 288 287 288 288 288 288 288 288 288 288 287 286 287 287 287
283 283 284 285 285 285 286 285 285 287 287 286 287 285 287 288 288 288 287 287 287 287 287 286 286 287 287
284 285 285 286 286 286 286 285 285 285 286 285 286 285 284 287 287 287 288 288 287 287 287 286 286 287 286
285 286 286 286 286 286 285 285 285 286 287 283 285 285 284 284 287 287 287 288 288 287 287 287 287 286 286
286 286 286 287 287 286 286 286 286 286 287 286 285 285 284 285 285 287 287 287 287 287 287 287 287 287 287
286 287 287 287 287 287 287 287 287 287 287 286 285 285 285 285 286 286 286 287 287 287 287 287 287 287 288
287 287 287 287 287 287 287 287 287 288 287 286 285 284 284 284 284 286 286 284 287 287 286 287 287 288 288
286 287 287 287 287 286 286 286 286 286 286 286 285 283 284 284 285 286 286 286 286 286 286 286 287 288 289
286 286 286 286 286 286 286 285 284 284 285 285 284 284 285 285 285 286 286 286 286 286 286 286 288 290 290
286 286 286 286 286 286 285 285 284 283 283 284 284 285 285 285 285 286 286 286 287 287 286 286 287 290 289
Wind_Speed
18 22 24 22 21 23 24 26 29 30 29 29 29 28 27 26 25 25 24 24 23 24 24 25 25 25 25
18 18 17 17 20 24 26 26 26 28 26 27 25 24 25 24 25 25 25 25 25 26 26 26 26 27 28
15 15 18 19 20 21 21 23 23 25 24 24 23 24 21 23 22 24 25 26 26 26 26 26 26 27 28
14 15 17 15 16 20 21 21 27 24 24 22 20 19 22 23 23 25 26 25 25 26 26 26 27 27 28
14 11 13 16 13 18 24 23 24 24 21 17 17 24 23 23 24 25 24 25 25 26 27 27 28 29 29
13 16 12 14 18 20 21 24 24 20 20 25 23 25 25 25 25 25 27 28 26 26 26 25 26 26 27
15 15 17 16 19 21 19 20 23 25 23 28 25 29 27 29 29 31 29 26 23 24 25 25 25 26 27
16 18 18 16 16 17 20 23 25 22 19 27 27 28 31 34 33 27 23 24 24 22 23 24 26 28 30
16 13 12 13 14 17 18 20 22 26 23 18 29 32 36 35 29 26 29 28 27 25 24 26 26 28 30
12 11 11 12 12 15 15 18 19 26 17 23 32 31 25 39 36 34 31 30 28 28 26 26 26 28 32
10 10 10 11 13 14 15 19 22 27 28 22 33 33 31 37 41 38 34 34 33 32 28 22 20 21 26
11 11 12 13 14 14 16 19 23 25 24 24 29 28 29 35 42 41 38 36 32 29 22 26 23 23 23
11 12 14 15 14 15 18 22 25 25 23 21 24 25 26 31 37 41 40 37 25 29 29 28 28 27 29
13 15 16 16 15 16 22 26 29 30 28 24 23 22 27 30 33 37 35 35 34 33 33 33 31 29 29
15 17 17 17 16 18 23 26 29 33 33 28 25 22 26 30 33 35 34 36 36 37 37 38 36 31 28
16 17 19 18 19 21 25 28 30 30 30 30 30 31 31 31 26 33 35 38 37 34 31 34 37 31 29
17 19 19 19 21 23 26 30 32 29 31 31 30 29 33 35 34 27 33 36 34 36 34 34 36 36 33
Wind_Direction
260 265 268 270 272 278 282 288 291 293 296 296 297 296 295 296 293 289 286 284 284 284 284 284 283 283 281
273 270 272 280 289 289 288 288 291 299 299 298 298 295 296 293 290 290 287 287 284 283 282 281 280 279 278
275 282 287 292 293 297 298 300 302 306 302 299 302 295 297 292 296 293 292 291 289 287 284 283 282 280 279
287 295 300 307 311 311 309 296 299 302 297 301 299 303 301 300 301 295 294 293 292 291 289 286 283 281 280
296 308 291 301 302 288 289 296 298 304 304 307 297 304 309 311 304 301 299 297 293 290 286 283 282 279 278
287 296 307 289 283 287 282 296 307 314 307 307 316 313 314 312 309 310 308 305 297 290 287 285 284 283 281
284 278 281 283 278 287 297 301 302 310 311 309 324 312 317 312 313 315 312 305 300 294 286 284 282 281 280
283 289 289 284 280 287 294 297 299 310 307 293 320 313 319 315 314 311 310 313 313 306 296 287 285 282 279
305 298 290 290 295 295 298 297 300 312 320 305 319 309 314 315 322 323 318 317 313 308 304 296 289 285 281
307 301 302 302 297 293 295 295 302 311 311 307 315 317 316 317 318 318 321 324 319 313 308 299 292 286 284
305 306 302 298 296 290 289 293 298 302 323 311 306 308 302 307 314 318 323 324 322 319 315 305 298 289 287
311 309 304 304 302 297 300 302 304 307 317 307 299 307 307 307 308 317 320 319 321 320 320 313 303 296 288
308 309 310 312 308 307 314 318 312 314 319 314 307 311 307 305 307 311 317 323 322 321 321 316 312 310 309
313 319 318 316 314 317 321 323 318 320 325 324 320 313 308 309 310 311 318 309 320 321 324 318 316 315 313
319 321 320 316 316 321 323 324 323 325 326 330 326 319 309 312 311 312 314 315 319 320 319 314 311 310 311
319 321 320 316 315 320 328 330 325 324 325 330 328 325 320 315 312 312 311 310 314 315 309 304 305 308 308
324 324 321 315 314 319 327 330 329 324 325 326 322 318 315 306 316 307 301 315 316 315 315 308 303 304 308